Regional Weather Roundup
Issued by NWS

Home | Current Version | Previous Version | Graphics & Text | Print | Product List | Glossary On
Versions: 1 2 3 4 5 6 7 8 9 10 11 12 13 14 15 16 17 18 19 20 21 22 23 24 25 26 27 28 29 30 31 32 33 34 35 36 37 38 39 40 41 42 43 44 45 46 47 48 49 50
000
ASUS43 KDMX 101701
RWRIA

WEATHER ROUNDUP FOR IOWA
NATIONAL WEATHER SERVICE DES MOINES IA
1100 AM CST SAT DEC 10 2016

NOTE: "FAIR" INDICATES FEW OR NO CLOUDS BELOW 12,000 FEET WITH NO
SIGNIFICANT WEATHER AND/OR OBSTRUCTIONS TO VISIBILITY.

* - THESE STATIONS ARE NOT NWS STATIONS...THUS NOT UNDER NWS
QUALITY CONTROL.  THEY ALSO DO NOT REPORT WEATHER SUCH
AS PRECIPITATION OR FOG.

IAZ001>003-012>014-020>022-031>034-043>046-101800-
   NORTHWEST IOWA

CITY           SKY/WX    TMP DP  RH WIND       PRES   REMARKS
CARROLL *      LGT SNOW  21  21 100 SE12      30.34F WCI   9
CHEROKEE *     LGT SNOW  17  14  90 SE6       30.35R WCI   8
DENISON *      LGT SNOW  21  19  93 SE8       30.31F WCI  12
LE MARS *      LGT SNOW  19  16  86 SE8       30.34F WCI   9
ORANGE CITY *  LGT SNOW  16  12  86 SE6       30.31F WCI   7
SHELDON *      LGT SNOW  12  10  92 SE12      30.31S VSB 1   WCI  -2
SIOUX CITY     CLOUDY    23  18  81 SE14      30.33S HAZE    WCI  11
SPENCER        LGT SNOW  12   8  84 SE7       30.34F FOG     WCI   1
STORM LAKE *   LGT SNOW  16  12  86 SE13      30.32S WCI   2
$$

IAZ055>058-069>071-079>083-090>094-101800-
   SOUTHWEST IOWA

CITY           SKY/WX    TMP DP  RH WIND       PRES   REMARKS
ATLANTIC *     CLOUDY    23  19  86 SE7       30.34F WCI  15
AUDUBON *      LGT SNOW  21  18  86 SE7       30.34F WCI  13
CLARINDA *     CLOUDY    27  16  63 S12       30.37F WCI  16
COUNCIL BLFS * CLOUDY    25  19  80 SE9       30.32F WCI  15
CRESTON *      CLOUDY    25  18  74 SE12      30.35F HAZE    WCI  14
HARLAN  *      CLOUDY    23  21  93 SE9       30.37F WCI  13
LAMONI         CLOUDY    27  12  53 SE7       30.36F WCI  19
RED OAK *      CLOUDY    27  18  69 SE9       30.34F WCI  17
SHENANDOAH *   CLOUDY    28  16  59 SE13      30.35F WCI  18
$$

IAZ047>049-059>061-072>074-084-101800-
   CENTRAL IOWA

CITY           SKY/WX    TMP DP  RH WIND       PRES   REMARKS
AMES           LGT SNOW  22  20  92 SE9       30.40F VSB 1   WCI  12
ANKENY *       LGT SNOW  23  18  80 S10       30.41F WCI  12
BOONE *        LGT SNOW  21  19  93 SE13      30.37F WCI   9
CHARITON *     CLOUDY    23  19  86 SE10      30.40F WCI  12
DES MOINES     SNOW      23  20  88 SE9       30.40F VSB 1/2 WCI  13
GRINNELL*      LGT SNOW  23  16  74 S10       30.43F WCI  12
KNOXVILLE *    SNOW      23  18  80 SE8       30.40F VSB 1/2 WCI  14
MARSHALLTOWN   LGT SNOW  21  15  78 SE9       30.41F WCI  11
NEWTON *       CLOUDY    23  18  80 SE14      30.41F HAZE    WCI  11
PELLA *        FLURRIES  24  16  69 SE9       30.43F WCI  15
PERRY *        LGT SNOW  23  21  94 SE9       30.38F VSB 1   WCI  13
$$

IAZ004>006-015-016-023>025-035-036-101800-
   NORTH CENTRAL IOWA

CITY           SKY/WX    TMP DP  RH WIND       PRES   REMARKS
ALGONA *       LGT SNOW  14  12  92 E9        30.36F WCI   2
CLARION *      CLOUDY    18  14  86 E13       30.38F FOG     WCI   4
ESTHERVILLE    LGT SNOW   9   6  88 E13       30.34F FOG     WCI  -7
FORT DODGE *   CLOUDY    19  14  79 E12       30.37F WCI   7
MASON CITY     LGT SNOW  13   9  84 E8        30.41F FOG     WCI   2
WEBSTER CITY * LGT SNOW  19  18  93 E12       30.36F WCI   7
IOWA FALLS *   LGT SNOW  21  17  86 E9        30.41F WCI  10
$$

IAZ007>011-017>019-026>030-037>042-050>054-066-101800-
   NORTHEAST IOWA

CITY           SKY/WX    TMP DP  RH WIND       PRES   REMARKS
CEDAR RAPIDS   CLOUDY    22  14  71 SE6       30.45F WCI  14
CHARLES CITY * LGT SNOW  14  10  85 E5        30.43F WCI   6
CLINTON *      CLOUDY    26  18  71 CALM      30.49F
DECORAH *      CLOUDY    12   7  79 S3        30.43F
DUBUQUE        CLOUDY    18  14  84 S5        30.45F WCI  11
MONTICELLO *   CLOUDY    21  14  73 SE5       30.46F WCI  15
OELWEIN *      LGT SNOW  18  16  93 E5        30.44F WCI  11
WATERLOO       LGT SNOW  20  15  81 E7        30.44F WCI  11
$$

IAZ064-065-067-068-078-101800-
   EAST CENTRAL IOWA

CITY           SKY/WX    TMP DP  RH WIND       PRES   REMARKS
DAVENPORT      CLOUDY    23  13  65 SW3       30.48F
IOWA CITY      CLOUDY    25  15  66 SE6       30.49F WCI  18
MUSCATINE *    MOSUNNY   27  12  54 S6        30.49F WCI  20
QUAD CITIES    CLOUDY    25  12  58 VRB3      30.49F
$$

IAZ062-063-075>077-085>089-095>099-101800-
   SOUTHEAST IOWA

CITY           SKY/WX    TMP DP  RH WIND       PRES   REMARKS
BURLINGTON     CLOUDY    27  13  55 SE10      30.48F WCI  17
FAIRFIELD *    CLOUDY    27  10  50 SE12      30.44F WCI  16
FORT MADISON * CLOUDY    27  14  59 SE8       30.48F WCI  18
KEOKUK *       PTSUNNY   28  10  47 SE10      30.47F WCI  19
OSKALOOSA *    PTSUNNY   25  14  62 SE9       30.44F WCI  16
CENTERVILLE *  FLURRIES  25  18  74 SE9       30.42F WCI  15
OTTUMWA        FLURRIES  25  14  63 SE12      30.43F WCI  14
WASHINGTON *   CLOUDY    27  14  59 SE9       30.47F WCI  17
$$

ABBREVIATIONS USED IN REMARKS
   TC - TEMPERATURES IN CELSIUS
  WCI - WIND CHILL INDEX
   HX - HEAT INDEX
  VSB - VISIBILITY
$$





USA.gov is the U.S. government's official web portal to all federal, state and local government web resources and services.